Theta_e
350 350 350 350 349 348 348 347 344 346 345 344 343 343 344 347 345 344 344 346 349 352 351 352 352 352 350 349 350 351 349 348 350 349 349 351 347 349 350 346 346 345 343
351 351 351 350 350 349 350 349 346 342 345 344 348 344 345 345 348 345 344 350 352 352 352 353 351 350 352 350 349 350 350 352 351 351 350 351 348 348 347 346 347 346 344
351 351 352 351 351 350 349 350 350 343 341 348 350 343 345 348 345 346 345 347 351 352 353 353 352 353 352 350 350 348 347 348 348 348 346 347 350 348 349 347 345 346 344
350 351 352 352 352 351 351 351 350 349 345 348 350 350 350 349 349 349 347 349 350 352 351 352 352 351 352 349 351 350 349 349 349 350 349 348 348 349 347 349 350 349 348
348 350 351 352 353 352 352 352 350 346 344 340 349 343 346 349 349 350 347 350 351 352 351 351 351 349 344 345 346 349 346 347 346 347 347 349 347 348 346 346 348 347 345
348 349 352 352 353 353 353 352 348 345 344 344 344 347 350 349 346 340 342 345 350 350 351 351 350 345 344 344 345 346 346 345 346 348 350 347 348 345 345 344 344 345 345
350 352 352 352 353 353 352 352 351 349 349 346 347 350 350 350 346 342 341 344 346 344 349 349 348 350 345 345 345 345 345 345 344 344 344 343 342 341 341 341 342 341 342
347 349 349 348 349 350 353 352 351 351 351 351 351 349 350 350 341 341 342 345 346 347 346 346 345 347 345 345 347 345 345 344 344 341 342 341 340 340 340 339 338 338 339
343 344 346 345 347 348 350 350 350 350 351 353 352 351 348 344 343 341 343 344 346 345 345 345 345 345 345 345 344 342 342 342 342 340 340 339 338 337 337 336 336 336 336
342 341 342 342 344 345 346 347 349 349 352 349 348 348 347 347 346 344 344 346 346 344 343 343 344 344 343 341 341 340 340 340 339 337 336 335 334 333 332 332 332 333 333
340 340 337 337 341 342 341 342 345 347 346 344 343 344 346 346 347 346 344 344 343 341 340 342 341 340 339 338 338 338 338 338 335 334 332 329 325 323 323 323 322 324 325
340 337 336 340 341 343 343 342 342 341 343 344 345 343 341 342 343 343 342 342 339 339 340 341 339 338 336 336 336 336 334 332 332 330 328 323 320 319 319 318 317 317 316
339 337 337 342 341 341 341 340 340 341 343 344 343 340 340 340 340 339 338 339 338 337 338 337 334 333 333 333 332 332 331 329 327 326 323 321 319 318 319 318 318 318 315
339 338 338 338 337 340 340 338 337 338 338 340 340 340 339 337 337 337 336 336 336 334 333 333 331 330 330 329 329 327 329 328 327 323 320 319 318 317 315 315 316 317 319
339 339 337 337 337 336 332 331 334 336 336 336 336 335 334 331 330 330 329 329 329 333 332 332 330 328 327 326 326 324 323 323 322 321 319 317 315 315 314 314 314 315 314
339 338 336 336 337 339 335 331 330 331 331 333 334 334 332 332 331 331 332 333 332 332 330 330 328 326 325 324 323 320 317 316 316 315 315 314 313 313 313 312 312 311 311
336 336 337 335 332 336 337 337 334 333 334 334 334 334 333 333 333 332 331 330 329 329 328 326 325 324 322 318 316 315 315 315 315 314 313 312 311 310 311 310 310 310 310
335 334 334 335 335 334 334 333 334 333 333 332 331 331 331 330 330 329 327 324 319 318 320 319 317 316 316 315 314 314 315 314 314 313 312 311 310 310 310 309 309 309 309
334 334 334 334 334 334 334 333 332 332 331 331 330 328 327 322 316 313 313 317 317 317 317 316 316 316 315 314 314 315 315 314 313 313 312 311 310 310 310 310 309 308 310
334 334 334 334 333 332 332 332 331 330 329 326 322 318 314 313 314 314 317 318 317 317 317 317 317 316 315 315 314 314 314 312 313 313 312 311 311 311 311 311 310 310 311
330 331 331 331 331 331 331 330 328 325 321 316 316 313 314 315 316 316 316 316 316 316 317 317 317 316 315 315 315 314 314 313 313 313 313 313 312 312 311 311 311 311 311
326 324 324 323 322 323 323 321 320 318 317 316 316 314 314 316 316 316 315 315 316 316 316 316 316 316 315 315 315 314 313 313 313 313 313 313 313 313 312 311 311 311 310
322 321 321 320 319 317 316 315 314 314 314 315 314 313 313 316 316 316 316 316 316 316 317 317 317 316 316 316 316 316 315 315 315 315 314 313 313 313 312 311 311 311 310
321 321 322 322 321 319 318 316 315 315 316 316 316 315 314 315 316 317 317 317 316 316 316 316 316 315 315 315 315 315 314 315 314 314 315 314 314 314 313 312 312 311 310
320 320 320 320 319 319 319 319 318 316 316 316 316 316 316 316 316 317 317 317 317 317 316 316 316 316 316 315 315 315 313 312 312 311 312 312 313 313 314 313 312 311 310
322 320 320 319 318 319 319 319 319 319 318 318 317 317 317 317 317 317 316 316 316 316 316 317 317 316 316 315 313 312 310 306 301 302 301 306 309 312 312 312 311 310 309
Wind_Speed
19 20 19 18 19 19 18 17 16 15 15 12 12 12 11 9 10 11 10 8 9 9 7 7 6 7 5 8 10 5 9 8 8 8 8 8 10 8 8 10 12 10 12
19 19 20 19 18 18 19 18 17 17 16 16 13 13 12 10 10 10 9 9 9 8 7 7 6 6 8 8 5 9 8 8 8 9 9 10 9 7 8 10 8 6 8
19 20 20 21 20 20 19 19 18 18 19 14 13 16 13 11 12 11 12 9 9 9 9 9 9 7 8 6 7 6 6 7 9 9 10 9 11 12 8 9 9 7 7
18 18 20 21 22 20 19 19 18 18 18 17 15 14 14 13 12 12 12 11 11 10 10 9 9 10 10 9 8 9 8 8 9 10 9 11 9 11 8 7 8 6 4
20 18 18 18 19 20 21 20 18 18 17 19 18 20 18 15 14 13 13 11 12 12 11 10 10 12 11 12 13 12 14 12 10 12 9 9 10 6 10 10 8 8 10
15 18 18 18 18 20 21 21 22 21 20 19 18 19 18 17 19 17 15 15 14 13 11 12 12 12 14 14 15 16 16 14 12 12 11 12 10 8 9 8 10 9 8
9 13 17 17 18 18 20 21 22 23 22 22 20 19 19 19 22 21 19 18 16 15 13 12 12 11 13 14 15 15 16 16 17 17 14 14 11 12 10 9 9 10 10
6 9 15 18 18 18 21 22 22 21 22 22 20 18 18 19 22 20 19 17 17 16 16 17 16 16 17 14 12 15 16 16 12 7 10 10 10 10 10 9 8 7 7
11 12 10 11 12 13 18 19 21 23 23 22 19 18 19 20 17 18 18 19 19 20 20 20 18 14 18 12 11 14 14 11 9 8 8 7 6 5 4 3 2 3 4
7 11 13 14 15 15 14 15 20 22 23 26 25 23 22 20 18 17 17 17 15 14 13 13 10 10 12 9 9 11 10 7 3 0 2 4 5 5 4 3 2 1 2
6 5 6 10 15 17 19 21 24 25 24 21 16 16 17 18 16 16 16 14 11 9 7 8 6 7 7 5 5 5 4 3 3 3 4 5 6 7 7 7 7 7 4
5 3 7 13 12 11 15 20 22 26 29 26 28 27 14 10 9 12 13 13 10 7 5 6 4 5 4 3 3 4 3 1 3 2 3 4 4 6 6 6 6 5 5
6 3 2 4 7 11 9 10 15 22 26 27 25 23 21 16 16 15 11 10 9 7 6 4 3 2 3 4 4 2 3 3 3 4 4 5 4 4 7 8 7 8 7
9 7 2 3 3 5 2 1 8 15 19 22 22 23 21 19 19 18 16 12 10 8 9 7 5 6 5 6 6 5 4 4 4 4 5 4 4 5 4 4 3 3 2
12 10 7 6 5 8 10 13 11 9 8 11 13 17 18 18 17 14 13 12 8 8 7 8 8 6 5 7 6 5 5 5 5 6 5 4 4 4 4 4 4 4 3
8 11 10 7 5 9 10 10 12 12 12 8 8 9 11 10 10 11 11 12 11 9 10 10 9 8 7 5 5 7 7 8 7 7 6 5 4 4 3 4 4 4 4
6 8 12 8 4 7 9 13 15 15 14 15 12 11 10 13 14 13 13 12 12 11 11 11 11 9 9 10 8 7 7 7 8 6 7 6 5 5 5 4 5 5 5
4 6 11 10 10 11 8 10 10 12 13 13 12 12 13 12 13 13 14 14 14 12 9 10 10 10 10 9 9 8 7 7 7 7 6 6 5 5 4 5 5 5 6
7 7 7 10 10 11 12 11 12 12 13 12 12 13 15 16 16 17 16 10 11 11 9 9 9 8 8 9 9 8 8 7 6 6 5 5 5 5 5 5 5 8 8
8 7 9 11 9 13 13 13 12 13 13 14 16 18 20 19 16 14 9 9 8 8 8 9 8 8 8 8 9 9 8 7 6 5 5 4 5 4 3 3 3 4 5
8 9 9 10 10 11 12 11 9 10 12 13 12 15 17 11 10 9 8 7 7 7 9 9 8 8 9 9 8 7 6 5 5 5 4 3 3 2 0 2 3 3 5
8 9 10 9 10 11 11 12 12 12 12 12 12 16 17 12 11 10 9 9 9 9 9 10 9 8 8 7 7 5 5 4 4 4 4 5 6 5 4 5 4 5 6
10 11 11 11 10 12 12 11 12 12 13 12 12 15 15 11 12 12 11 10 10 10 9 8 8 7 6 6 5 5 6 6 6 7 9 10 10 9 9 10 9 9 9
10 10 10 10 9 9 9 10 11 12 11 12 12 12 13 13 13 12 12 11 9 8 8 7 7 7 8 7 7 8 9 10 11 11 13 14 14 15 16 15 13 12 11
10 11 11 10 10 11 11 11 11 11 12 12 12 12 13 13 13 13 12 12 11 10 9 10 10 11 12 12 10 9 16 18 20 22 21 15 16 15 15 15 14 13 11
12 13 13 12 13 12 11 11 11 13 14 14 14 14 14 14 14 14 15 13 11 12 11 11 11 10 10 9 11 15 19 21 17 13 14 15 15 13 13 12 11 10 11
Wind_Direction
217 218 218 221 223 228 231 237 240 243 241 244 244 243 245 257 256 258 261 260 272 267 272 278 282 278 281 304 294 288 273 274 269 296 311 309 309 299 280 305 310 318 320
222 221 224 225 224 229 231 233 237 240 241 246 252 245 250 247 252 268 268 257 260 264 262 256 264 276 282 302 291 282 279 281 283 286 304 305 308 293 300 296 293 280 293
226 225 225 227 227 228 230 231 234 240 243 240 246 248 245 255 263 267 278 268 264 260 252 251 260 265 271 261 273 274 291 288 290 294 295 300 297 302 297 304 301 277 289
225 225 227 229 228 228 228 229 230 236 237 234 239 246 246 251 257 261 262 268 262 269 263 252 260 263 267 262 259 264 287 281 286 286 295 299 296 283 301 294 292 289 265
222 224 229 231 231 228 226 226 231 234 240 238 234 248 249 249 252 254 263 265 264 260 267 270 275 263 274 275 277 271 281 278 281 287 298 295 298 289 296 287 289 282 277
227 222 227 231 231 230 227 228 230 232 235 237 237 238 236 238 248 258 256 265 262 268 268 266 267 271 274 282 281 276 275 281 293 293 291 274 278 285 296 293 292 287 289
227 220 222 226 228 229 227 224 226 230 232 237 240 237 234 236 245 251 247 255 259 265 262 261 265 266 291 289 283 275 275 281 285 286 281 276 284 284 291 303 292 286 277
213 220 225 233 236 232 228 228 226 224 225 225 232 232 230 234 244 245 245 248 256 257 259 264 270 268 278 274 272 280 287 287 285 268 273 276 276 288 297 294 290 297 290
234 231 225 222 223 227 230 232 232 231 225 222 220 221 222 239 241 241 243 245 254 265 264 265 266 263 272 268 263 278 279 278 280 276 279 289 307 324 341 334 334 313 291
249 231 233 237 231 230 231 229 226 227 220 225 224 222 230 233 237 239 241 252 258 252 257 272 271 269 281 276 259 266 266 264 249 141 49 38 16 4 7 353 326 279 265
266 245 249 268 260 248 235 234 232 227 222 223 219 216 219 226 229 237 245 248 224 229 245 260 266 277 283 254 240 250 236 211 138 78 51 55 59 57 58 63 68 74 56
234 261 251 239 236 237 243 239 239 240 237 240 240 233 227 223 221 208 198 203 208 213 217 223 253 250 247 161 199 174 143 129 91 103 97 87 64 53 55 57 59 67 85
208 209 65 193 223 223 220 234 239 238 232 230 228 227 217 206 187 190 178 182 181 184 167 190 186 168 187 133 149 160 123 125 130 121 118 103 89 66 50 35 30 37 43
215 228 234 75 125 146 105 201 221 214 204 191 188 176 174 175 170 163 163 155 160 147 148 138 118 141 137 130 124 97 112 148 140 136 112 97 67 59 44 59 60 97 60
244 248 193 165 165 126 121 106 109 119 146 159 168 164 157 152 148 151 152 159 169 171 179 159 156 150 152 152 152 150 121 113 117 114 106 95 85 69 63 61 62 65 74
190 183 186 173 162 194 186 159 145 141 141 150 161 175 169 166 170 172 174 174 177 177 170 166 166 166 171 166 153 149 140 132 122 113 106 99 92 94 71 61 63 63 48
213 185 173 174 191 199 188 192 194 197 196 192 188 180 177 180 170 170 172 169 167 168 167 166 166 166 166 156 149 153 144 143 125 119 105 96 88 80 79 77 63 62 46
197 179 176 173 184 173 168 170 174 172 171 166 166 169 168 172 170 164 157 154 154 145 158 150 149 151 153 158 156 156 147 136 132 118 111 104 102 100 89 79 65 60 47
194 206 190 179 182 177 167 173 177 179 182 180 178 166 153 147 146 144 142 137 148 148 153 146 144 154 161 156 156 155 152 150 139 132 122 114 108 94 86 79 49 54 54
198 195 208 201 197 184 176 185 182 176 165 158 155 154 147 144 143 146 146 155 156 157 159 153 153 161 159 159 154 156 163 155 146 146 138 126 116 110 81 65 48 33 12
176 174 170 169 173 171 169 164 156 149 150 144 152 157 153 144 159 158 159 159 161 167 173 167 161 153 151 152 155 157 160 165 171 167 168 184 201 203 174 13 19 2 347
169 157 145 150 152 149 155 152 151 154 158 156 161 160 155 141 161 160 154 143 142 145 152 159 157 155 165 167 166 163 178 191 203 208 220 233 249 259 273 288 302 319 328
162 158 157 154 154 164 150 155 156 159 162 160 162 167 164 163 171 163 157 158 152 147 153 147 154 166 175 187 203 217 230 243 246 251 251 253 257 263 265 277 279 286 289
183 179 175 172 166 157 159 159 161 164 163 165 173 182 182 178 178 176 174 181 182 183 190 191 199 209 224 230 246 254 261 248 251 256 259 256 258 263 266 268 272 268 266
186 182 185 186 189 179 187 186 188 186 183 184 183 181 181 182 186 191 194 198 206 215 221 229 232 239 241 241 241 241 262 275 275 269 260 254 253 255 258 265 267 256 270
202 200 197 192 186 185 187 190 196 201 202 199 198 198 198 202 205 211 214 216 225 236 241 232 231 223 219 233 245 274 282 286 283 275 256 241 241 249 252 253 255 255 268